This is the latest recevied weather packets stored in our database for station/object N0HEQ. If no packets are shown the sender has not sent any weather packets the latest 10 day(s).
| Time | Temp. | Humidity | Pressure | Rain* | Wind** | Luminosity | Snow |
|---|---|---|---|---|---|---|---|
| 1777741340 | 16.67° C | 20% | 1024.6 hPa | 0 mm | - | 720 W/m² | - |
| 1777741035 | 16.11° C | 22% | 1024.6 hPa | 0 mm | - | 749 W/m² | - |
| 1777740733 | 16.11° C | 20% | 1024.5 hPa | 0 mm | - | 596 W/m² | - |
| 1777740429 | 15.56° C | 22% | 1024.7 hPa | 0 mm | - | 633 W/m² | - |
| 1777740127 | 16.11° C | 24% | 1024.6 hPa | 0 mm | - | 220 W/m² | - |
| 1777739822 | 16.11° C | 20% | 1024.7 hPa | 0 mm | - | 112 W/m² | - |
| 1777739519 | 15° C | 23% | 1024.6 hPa | 0 mm | - | 84 W/m² | - |
| 1777739216 | 15° C | 24% | 1024.7 hPa | 0 mm | - | 84 W/m² | - |
| 1777738913 | 15.56° C | 23% | 1024.6 hPa | 0 mm | - | 49 W/m² | - |
| 1777738610 | 15.56° C | 23% | 1024.7 hPa | 0 mm | - | 118 W/m² | - |
| 1777738306 | 15.56° C | 21% | 1024.7 hPa | 0 mm | - | 256 W/m² | - |
| 1777738005 | 15° C | 23% | 1024.9 hPa | 0 mm | - | 451 W/m² | - |
| 1777737703 | 15° C | 24% | 1024.9 hPa | 0 mm | - | 411 W/m² | - |
| 1777737401 | 14.44° C | 25% | 1024.8 hPa | 0 mm | - | 316 W/m² | - |
| 1777737098 | 14.44° C | 27% | 1024.8 hPa | 0 mm | - | 272 W/m² | - |
| 1777736794 | 13.33° C | 27% | 1024.9 hPa | 0 mm | - | 347 W/m² | - |
| 1777736165 | 13.33° C | 30% | 1024.9 hPa | 0 mm | - | 190 W/m² | - |
| 1777735863 | 13.33° C | 29% | 1025.2 hPa | 0 mm | - | 305 W/m² | - |
| 1777735560 | 12.78° C | 30% | 1025.1 hPa | 0 mm | - | 82 W/m² | - |
| 1777735257 | 12.78° C | 30% | 1025.1 hPa | 0 mm | - | 81 W/m² | - |
| 1777734954 | 12.78° C | 31% | 1025.5 hPa | 0 mm | - | 39 W/m² | - |
| 1777734652 | 12.22° C | 33% | 1025.3 hPa | 0 mm | - | 138 W/m² | - |
| 1777734349 | 12.22° C | 33% | 1025.4 hPa | 0 mm | - | 38 W/m² | - |
| 1777734045 | 11.67° C | 33% | 1025.5 hPa | 0 mm | - | 107 W/m² | - |
| 1777733741 | 11.67° C | 32% | 1025.4 hPa | 0 mm | - | 78 W/m² | - |
* Rain latest hour (hover to see other rain measurements)
** Current wind speed in m/s (hover to see current wind gust speed)